LEMUR-2-SPIRE-MINIONS

Last updated on Wed Feb 14 2018 16:20:28 GMT+0000 (Coordinated Universal Time)

1 41994U 17008AY 18045.15579200 .00001547 00000-0 67803-4 0 9995 2 41994 97.4651 110.5684 0009298 73.2805 286.9452 15.23481399 54683

Satellite not in orbit

LEMUR-2-SPIRE-MINIONS